{"data":{"norad_id":67128,"intl_designator":"2025-299AC","name":"STARLINK-35685","alt_names":[],"object_type":"PAYLOAD","status":"ACTIVE","operator":null,"country":"US","launch_date":"2025-12-15","launch_site_code":"AFETR","launch_vehicle":null,"mission":null,"orbit_class":"UNKNOWN","rcs_meters":null,"size_class":null,"mass_kg":null,"dimensions":null,"purposes":["comms"],"wikipedia_slug":null,"has_3d_model":false,"image_url":null,"decayed_at":null,"tle_current":{"epoch":"2026-05-24T21:26:12.858432Z","epoch_age_seconds":81744,"freshness":"FRESH","line1":"1 67128U 25299AC  26144.89320438  .00011322  00000+0  42019-3 0  9992","line2":"2 67128  42.9987  98.3689 0000762 257.3036 102.7730 15.27590968 24771","mean_motion":15.27590968,"eccentricity":7.62e-5,"inclination_deg":42.9987,"raan_deg":98.3689,"arg_perigee_deg":257.3036,"mean_anomaly_deg":102.773,"bstar":0.00042019,"rev_number":2477,"period_min":94.266071884761,"perigee_km":482.49343422048,"apogee_km":483.5390739764,"semimajor_km":6861.1532540984,"source":"CELESTRAK","updated_at":"2026-05-25T13:38:21.478644Z"}}}